Location: �bnet
(46.9957°N, 8.4908°E)
Time: 09:34:09
(UTC+00:00)

Cosmos 2154 Rocket - Pass Details

Date: 11 May 2021
Orbit: 965 x 997 km, 82.9° (Epoch: 13 June)

Event Time Altitude Azimuth Distance (km) Brightness Sun altitude
Rises 20:57:40 0° 353° (N) 3,722 8.1 -17.2°
Reaches altitude 10° 21:00:15 10° 356° (N) 2,765 7.2 -17.5°
Maximum altitude 21:06:33 64° 78° (ENE) 1,087 4.1 -18.1°
Enters shadow 21:09:44 30° 150° (SSE) 1,683 4.7 -18.4°
